"datetime","temp","dp","rain_mm","uv","mb"
"2018-02-24 00:00:00","-1.9","-3.5",0.0,0.0,1018.5
"2018-02-24 00:01:00","-1.9","-3.5",0.0,0.0,1018.6
"2018-02-24 00:02:00","-2.0","-3.6",0.0,0.0,1018.6
"2018-02-24 00:03:00","-2.1","-3.7",0.0,0.0,1018.6
"2018-02-24 00:04:00","-2.1","-3.7",0.0,0.0,1018.6
"2018-02-24 00:05:00","-2.1","-3.7",0.0,0.0,1018.5
"2018-02-24 00:06:00","-2.1","-3.7",0.0,0.0,1018.6
"2018-02-24 00:07:00","-2.1","-3.7",0.0,0.0,1018.5
"2018-02-24 00:08:00","-2.2","-3.8",0.0,0.0,1018.5
"2018-02-24 00:09:00","-2.2","-3.8",0.0,0.0,1018.6
"2018-02-24 00:10:00","-2.2","-3.8",0.0,0.0,1018.6
"2018-02-24 00:11:00","-2.3","-3.9",0.0,0.0,1018.6
"2018-02-24 00:12:00","-2.3","-3.9",0.0,0.0,1018.6
"2018-02-24 00:13:00","-2.2","-3.8",0.0,0.0,1018.6
"2018-02-24 00:14:00","-2.2","-3.6",0.0,0.0,1018.5
"2018-02-24 00:15:00","-2.2","-3.6",0.0,0.0,1018.5
"2018-02-24 00:16:00","-2.3","-3.9",0.0,0.0,1018.6
"2018-02-24 00:17:00","-2.3","-3.9",0.0,0.0,1018.6
"2018-02-24 00:18:00","-2.3","-3.7",0.0,0.0,1018.6
"2018-02-24 00:19:00","-2.3","-3.7",0.0,0.0,1018.5
"2018-02-24 00:20:00","-2.3","-3.7",0.0,0.0,1018.5
"2018-02-24 00:21:00","-2.4","-3.8",0.0,0.0,1018.5
"2018-02-24 00:22:00","-2.4","-4.0",0.0,0.0,1018.5
"2018-02-24 00:23:00","-2.5","-4.1",0.0,0.0,1018.5
"2018-02-24 00:24:00","-2.6","-4.0",0.0,0.0,1018.5
"2018-02-24 00:25:00","-2.6","-4.0",0.0,0.0,1018.5
"2018-02-24 00:26:00","-2.6","-4.0",0.0,0.0,1018.5
"2018-02-24 00:27:00","-2.7","-4.1",0.0,0.0,1018.5
"2018-02-24 00:28:00","-2.7","-4.1",0.0,0.0,1018.5
"2018-02-24 00:29:00","-2.6","-4.0",0.0,0.0,1018.5
"2018-02-24 00:30:00","-2.6","-4.0",0.0,0.0,1018.5
"2018-02-24 00:31:00","-2.6","-4.0",0.0,0.0,1018.5
"2018-02-24 00:32:00","-2.6","-4.0",0.0,0.0,1018.5
"2018-02-24 00:33:00","-2.6","-4.0",0.0,0.0,1018.5
"2018-02-24 00:34:00","-2.6","-4.0",0.0,0.0,1018.5
"2018-02-24 00:35:00","-2.7","-4.1",0.0,0.0,1018.5
"2018-02-24 00:36:00","-2.7","-4.1",0.0,0.0,1018.5
"2018-02-24 00:37:00","-2.8","-4.2",0.0,0.0,1018.5
"2018-02-24 00:38:00","-2.8","-4.2",0.0,0.0,1018.5
"2018-02-24 00:39:00","-2.8","-4.2",0.0,0.0,1018.5
"2018-02-24 00:40:00","-2.7","-4.1",0.0,0.0,1018.5
"2018-02-24 00:41:00","-2.7","-4.1",0.0,0.0,1018.5
"2018-02-24 00:42:00","-2.7","-4.1",0.0,0.0,1018.5
"2018-02-24 00:43:00","-2.7","-4.1",0.0,0.0,1018.6
"2018-02-24 00:44:00","-2.7","-4.0",0.0,0.0,1018.6
"2018-02-24 00:45:00","-2.6","-3.9",0.0,0.0,1018.6
"2018-02-24 00:46:00","-2.7","-4.0",0.0,0.0,1018.5
"2018-02-24 00:47:00","-2.7","-4.1",0.0,0.0,1018.5
"2018-02-24 00:48:00","-2.8","-4.2",0.0,0.0,1018.5
"2018-02-24 00:49:00","-2.8","-4.2",0.0,0.0,1018.6
"2018-02-24 00:50:00","-2.8","-4.2",0.0,0.0,1018.5
"2018-02-24 00:51:00","-2.8","-4.2",0.0,0.0,1018.5
"2018-02-24 00:52:00","-2.9","-4.3",0.0,0.0,1018.5
"2018-02-24 00:53:00","-2.9","-4.3",0.0,0.0,1018.5
"2018-02-24 00:54:00","-2.9","-4.3",0.0,0.0,1018.5
"2018-02-24 00:55:00","-2.9","-4.2",0.0,0.0,1018.5
"2018-02-24 00:56:00","-2.9","-4.3",0.0,0.0,1018.5
"2018-02-24 00:57:00","-3.0","-4.3",0.0,0.0,1018.5
"2018-02-24 00:58:00","-3.1","-4.4",0.0,0.0,1018.5
"2018-02-24 00:59:00","-3.0","-4.3",0.0,0.0,1018.5
"2018-02-24 01:00:00","-3.1","-4.4",0.0,0.0,1018.5
"2018-02-24 01:01:00","-3.0","-4.3",0.0,0.0,1018.5
"2018-02-24 01:02:00","-3.0","-4.3",0.0,0.0,1018.5
"2018-02-24 01:03:00","-3.1","-4.4",0.0,0.0,1018.6
"2018-02-24 01:04:00","-3.1","-4.4",0.0,0.0,1018.6
"2018-02-24 01:05:00","-3.2","-4.5",0.0,0.0,1018.6
"2018-02-24 01:06:00","-3.2","-4.5",0.0,0.0,1018.6
"2018-02-24 01:07:00","-3.2","-4.5",0.0,0.0,1018.6
"2018-02-24 01:08:00","-3.3","-4.6",0.0,0.0,1018.6
"2018-02-24 01:09:00","-3.3","-4.6",0.0,0.0,1018.6
"2018-02-24 01:10:00","-3.3","-4.6",0.0,0.0,1018.6
"2018-02-24 01:11:00","-3.3","-4.6",0.0,0.0,1018.7
"2018-02-24 01:12:00","-3.3","-4.6",0.0,0.0,1018.7
"2018-02-24 01:13:00","-3.3","-4.6",0.0,0.0,1018.7
"2018-02-24 01:14:00","-3.4","-4.7",0.0,0.0,1018.6
"2018-02-24 01:15:00","-3.4","-4.7",0.0,0.0,1018.6
"2018-02-24 01:16:00","-3.4","-4.7",0.0,0.0,1018.6
"2018-02-24 01:17:00","-3.4","-4.7",0.0,0.0,1018.6
"2018-02-24 01:18:00","-3.3","-4.6",0.0,0.0,1018.6
"2018-02-24 01:19:00","-3.4","-4.7",0.0,0.0,1018.6
"2018-02-24 01:20:00","-3.5","-4.8",0.0,0.0,1018.7
"2018-02-24 01:21:00","-3.6","-4.9",0.0,0.0,1018.7
"2018-02-24 01:22:00","-3.6","-4.9",0.0,0.0,1018.7
"2018-02-24 01:23:00","-3.6","-4.9",0.0,0.0,1018.7
"2018-02-24 01:24:00","-3.6","-4.9",0.0,0.0,1018.7
"2018-02-24 01:25:00","-3.6","-4.9",0.0,0.0,1018.7
"2018-02-24 01:26:00","-3.6","-4.9",0.0,0.0,1018.7
"2018-02-24 01:27:00","-3.7","-5.0",0.0,0.0,1018.7
"2018-02-24 01:28:00","-3.7","-5.0",0.0,0.0,1018.7
"2018-02-24 01:29:00","-3.7","-5.0",0.0,0.0,1018.7
"2018-02-24 01:30:00","-3.7","-5.0",0.0,0.0,1018.7
"2018-02-24 01:31:00","-3.7","-5.0",0.0,0.0,1018.7
"2018-02-24 01:32:00","-3.6","-4.9",0.0,0.0,1018.7
"2018-02-24 01:33:00","-3.7","-5.0",0.0,0.0,1018.6
"2018-02-24 01:34:00","-3.7","-5.0",0.0,0.0,1018.7
"2018-02-24 01:35:00","-3.7","-5.0",0.0,0.0,1018.6
"2018-02-24 01:36:00","-3.7","-5.0",0.0,0.0,1018.7
"2018-02-24 01:37:00","-3.7","-4.8",0.0,0.0,1018.7
"2018-02-24 01:38:00","-3.7","-4.8",0.0,0.0,1018.7
"2018-02-24 01:39:00","-3.7","-4.8",0.0,0.0,1018.6
"2018-02-24 01:40:00","-3.8","-5.1",0.0,0.0,1018.7
"2018-02-24 01:41:00","-3.8","-5.1",0.0,0.0,1018.6
"2018-02-24 01:42:00","-3.9","-5.2",0.0,0.0,1018.7
"2018-02-24 01:43:00","-3.9","-5.2",0.0,0.0,1018.6
"2018-02-24 01:44:00","-3.8","-5.1",0.0,0.0,1018.7
"2018-02-24 01:45:00","-3.8","-5.1",0.0,0.0,1018.6
"2018-02-24 01:46:00","-3.8","-5.1",0.0,0.0,1018.7
"2018-02-24 01:47:00","-3.8","-4.9",0.0,0.0,1018.7
"2018-02-24 01:48:00","-3.9","-5.0",0.0,0.0,1018.8
"2018-02-24 01:49:00","-4.0","-5.1",0.0,0.0,1018.7
"2018-02-24 01:50:00","-4.0","-5.1",0.0,0.0,1018.8
"2018-02-24 01:51:00","-4.0","-5.1",0.0,0.0,1018.8
"2018-02-24 01:52:00","-4.0","-5.1",0.0,0.0,1018.8
"2018-02-24 01:53:00","-3.9","-5.0",0.0,0.0,1018.8
"2018-02-24 01:54:00","-3.9","-5.0",0.0,0.0,1018.8
"2018-02-24 01:55:00","-3.9","-5.0",0.0,0.0,1018.8
"2018-02-24 01:56:00","-3.9","-5.0",0.0,0.0,1018.7
"2018-02-24 01:57:00","-3.9","-5.0",0.0,0.0,1018.7
"2018-02-24 01:58:00","-3.9","-5.0",0.0,0.0,1018.7
"2018-02-24 01:59:00","-4.1","-5.2",0.0,0.0,1018.7
"2018-02-24 02:00:00","-4.1","-5.2",0.0,0.0,1018.7
"2018-02-24 02:01:00","-4.2","-5.3",0.0,0.0,1018.8
"2018-02-24 02:02:00","-4.2","-5.3",0.0,0.0,1018.7
"2018-02-24 02:03:00","-4.1","-5.2",0.0,0.0,1018.7
"2018-02-24 02:04:00","-4.1","-5.2",0.0,0.0,1018.7
"2018-02-24 02:05:00","-4.1","-5.2",0.0,0.0,1018.7
"2018-02-24 02:06:00","-4.1","-5.2",0.0,0.0,1018.7
"2018-02-24 02:07:00","-4.2","-5.3",0.0,0.0,1018.7
"2018-02-24 02:08:00","-4.2","-5.3",0.0,0.0,1018.7
"2018-02-24 02:09:00","-4.2","-5.3",0.0,0.0,1018.7
"2018-02-24 02:10:00","-4.3","-5.4",0.0,0.0,1018.6
"2018-02-24 02:11:00","-4.2","-5.3",0.0,0.0,1018.7
"2018-02-24 02:12:00","-4.2","-5.3",0.0,0.0,1018.7
"2018-02-24 02:13:00","-4.3","-5.4",0.0,0.0,1018.6
"2018-02-24 02:14:00","-4.3","-5.4",0.0,0.0,1018.6
"2018-02-24 02:15:00","-4.2","-5.3",0.0,0.0,1018.6
"2018-02-24 02:16:00","-4.2","-5.3",0.0,0.0,1018.6
"2018-02-24 02:17:00","-4.2","-5.3",0.0,0.0,1018.6
"2018-02-24 02:18:00","-4.1","-5.2",0.0,0.0,1018.6
"2018-02-24 02:19:00","-4.2","-5.3",0.0,0.0,1018.6
"2018-02-24 02:20:00","-4.2","-5.3",0.0,0.0,1018.6
"2018-02-24 02:21:00","-4.2","-5.3",0.0,0.0,1018.6
"2018-02-24 02:22:00","-4.2","-5.3",0.0,0.0,1018.6
"2018-02-24 02:23:00","-4.2","-5.3",0.0,0.0,1018.6
"2018-02-24 02:24:00","-4.2","-5.3",0.0,0.0,1018.6
"2018-02-24 02:25:00","-4.1","-5.2",0.0,0.0,1018.6
"2018-02-24 02:26:00","-4.1","-5.2",0.0,0.0,1018.6
"2018-02-24 02:27:00","-4.2","-5.3",0.0,0.0,1018.6
"2018-02-24 02:28:00","-4.2","-5.3",0.0,0.0,1018.6
"2018-02-24 02:29:00","-4.2","-5.3",0.0,0.0,1018.6
"2018-02-24 02:30:00","-4.3","-5.4",0.0,0.0,1018.6
"2018-02-24 02:31:00","-4.3","-5.4",0.0,0.0,1018.6
"2018-02-24 02:32:00","-4.4","-5.5",0.0,0.0,1018.6
"2018-02-24 02:33:00","-4.4","-5.5",0.0,0.0,1018.6
"2018-02-24 02:34:00","-4.4","-5.5",0.0,0.0,1018.6
"2018-02-24 02:35:00","-4.4","-5.5",0.0,0.0,1018.6
"2018-02-24 02:36:00","-4.4","-5.5",0.0,0.0,1018.6
"2018-02-24 02:37:00","-4.4","-5.5",0.0,0.0,1018.6
"2018-02-24 02:38:00","-4.4","-5.5",0.0,0.0,1018.6
"2018-02-24 02:39:00","-4.4","-5.5",0.0,0.0,1018.7
"2018-02-24 02:40:00","-4.4","-5.5",0.0,0.0,1018.7
"2018-02-24 02:41:00","-4.4","-5.5",0.0,0.0,1018.6
"2018-02-24 02:42:00","-4.4","-5.5",0.0,0.0,1018.6
"2018-02-24 02:43:00","-4.4","-5.5",0.0,0.0,1018.6
"2018-02-24 02:44:00","-4.4","-5.5",0.0,0.0,1018.7
"2018-02-24 02:45:00","-4.6","-5.7",0.0,0.0,1018.6
"2018-02-24 02:46:00","-4.6","-5.7",0.0,0.0,1018.6
"2018-02-24 02:47:00","-4.6","-5.7",0.0,0.0,1018.6
"2018-02-24 02:48:00","-4.6","-5.7",0.0,0.0,1018.6
"2018-02-24 02:49:00","-4.6","-5.7",0.0,0.0,1018.6
"2018-02-24 02:50:00","-4.6","-5.7",0.0,0.0,1018.7
"2018-02-24 02:51:00","-4.6","-5.7",0.0,0.0,1018.6
"2018-02-24 02:52:00","-4.6","-5.7",0.0,0.0,1018.6
"2018-02-24 02:53:00","-4.6","-5.7",0.0,0.0,1018.7
"2018-02-24 02:54:00","-4.6","-5.7",0.0,0.0,1018.7
"2018-02-24 02:55:00","-4.6","-5.7",0.0,0.0,1018.6
"2018-02-24 02:56:00","-4.6","-5.7",0.0,0.0,1018.6
"2018-02-24 02:57:00","-4.5","-5.6",0.0,0.0,1018.6
"2018-02-24 02:58:00","-4.5","-5.6",0.0,0.0,1018.6
"2018-02-24 02:59:00","-4.6","-5.7",0.0,0.0,1018.6
"2018-02-24 03:00:00","-4.6","-5.7",0.0,0.0,1018.6
"2018-02-24 03:01:00","-4.6","-5.7",0.0,0.0,1018.6
"2018-02-24 03:02:00","-4.7","-5.8",0.0,0.0,1018.6
"2018-02-24 03:03:00","-4.7","-5.8",0.0,0.0,1018.6
"2018-02-24 03:04:00","-4.7","-5.8",0.0,0.0,1018.6
"2018-02-24 03:05:00","-4.7","-5.8",0.0,0.0,1018.5
"2018-02-24 03:06:00","-4.7","-5.8",0.0,0.0,1018.5
"2018-02-24 03:07:00","-4.7","-5.8",0.0,0.0,1018.5
"2018-02-24 03:08:00","-4.7","-5.8",0.0,0.0,1018.6
"2018-02-24 03:09:00","-4.7","-5.8",0.0,0.0,1018.6
"2018-02-24 03:10:00","-4.7","-5.8",0.0,0.0,1018.5
"2018-02-24 03:11:00","-4.7","-5.8",0.0,0.0,1018.5
"2018-02-24 03:12:00","-4.7","-5.8",0.0,0.0,1018.5
"2018-02-24 03:13:00","-4.7","-5.8",0.0,0.0,1018.5
"2018-02-24 03:14:00","-4.7","-5.8",0.0,0.0,1018.5
"2018-02-24 03:15:00","-4.8","-5.9",0.0,0.0,1018.5
"2018-02-24 03:16:00","-4.7","-5.8",0.0,0.0,1018.5
"2018-02-24 03:17:00","-4.7","-5.8",0.0,0.0,1018.5
"2018-02-24 03:18:00","-4.7","-5.8",0.0,0.0,1018.6
"2018-02-24 03:19:00","-4.7","-5.8",0.0,0.0,1018.6
"2018-02-24 03:20:00","-4.7","-5.8",0.0,0.0,1018.6
"2018-02-24 03:21:00","-4.7","-5.8",0.0,0.0,1018.6
"2018-02-24 03:22:00","-4.7","-5.8",0.0,0.0,1018.7
"2018-02-24 03:23:00","-4.7","-5.8",0.0,0.0,1018.6
"2018-02-24 03:24:00","-4.7","-5.8",0.0,0.0,1018.6
"2018-02-24 03:25:00","-4.6","-5.7",0.0,0.0,1018.6
"2018-02-24 03:26:00","-4.7","-5.8",0.0,0.0,1018.6
"2018-02-24 03:27:00","-4.7","-5.8",0.0,0.0,1018.6
"2018-02-24 03:28:00","-4.6","-5.7",0.0,0.0,1018.6
"2018-02-24 03:29:00","-4.6","-5.7",0.0,0.0,1018.7
"2018-02-24 03:30:00","-4.6","-5.7",0.0,0.0,1018.6
"2018-02-24 03:31:00","-4.7","-5.8",0.0,0.0,1018.7
"2018-02-24 03:32:00","-4.7","-5.8",0.0,0.0,1018.7
"2018-02-24 03:33:00","-4.7","-5.8",0.0,0.0,1018.6
"2018-02-24 03:34:00","-4.6","-5.7",0.0,0.0,1018.6
"2018-02-24 03:35:00","-4.6","-5.7",0.0,0.0,1018.6
"2018-02-24 03:36:00","-4.5","-5.6",0.0,0.0,1018.6
"2018-02-24 03:37:00","-4.6","-5.7",0.0,0.0,1018.6
"2018-02-24 03:38:00","-4.6","-5.7",0.0,0.0,1018.6
"2018-02-24 03:39:00","-4.6","-5.7",0.0,0.0,1018.6
"2018-02-24 03:40:00","-4.7","-5.8",0.0,0.0,1018.6
"2018-02-24 03:41:00","-4.7","-5.8",0.0,0.0,1018.7
"2018-02-24 03:42:00","-4.7","-5.8",0.0,0.0,1018.5
"2018-02-24 03:43:00","-4.7","-5.8",0.0,0.0,1018.5
"2018-02-24 03:44:00","-4.7","-5.8",0.0,0.0,1018.6
"2018-02-24 03:45:00","-4.8","-5.9",0.0,0.0,1018.6
"2018-02-24 03:46:00","-4.8","-5.9",0.0,0.0,1018.6
"2018-02-24 03:47:00","-4.9","-6.0",0.0,0.0,1018.6
"2018-02-24 03:48:00","-4.8","-5.9",0.0,0.0,1018.6
"2018-02-24 03:49:00","-4.8","-5.9",0.0,0.0,1018.5
"2018-02-24 03:50:00","-4.8","-5.9",0.0,0.0,1018.5
"2018-02-24 03:51:00","-4.7","-5.8",0.0,0.0,1018.5
"2018-02-24 03:52:00","-4.8","-5.9",0.0,0.0,1018.6
"2018-02-24 03:53:00","-4.8","-5.9",0.0,0.0,1018.6
"2018-02-24 03:54:00","-4.8","-5.9",0.0,0.0,1018.6
"2018-02-24 03:55:00","-4.8","-5.9",0.0,0.0,1018.6
"2018-02-24 03:56:00","-4.7","-5.8",0.0,0.0,1018.6
"2018-02-24 03:57:00","-4.6","-5.6",0.0,0.0,1018.6
"2018-02-24 03:58:00","-4.6","-5.6",0.0,0.0,1018.6
"2018-02-24 03:59:00","-4.6","-5.6",0.0,0.0,1018.6
"2018-02-24 04:00:00","-4.6","-5.6",0.0,0.0,1018.6
"2018-02-24 04:01:00","-4.6","-5.6",0.0,0.0,1018.6
"2018-02-24 04:02:00","-4.7","-5.7",0.0,0.0,1018.6
"2018-02-24 04:03:00","-4.7","-5.8",0.0,0.0,1018.6
"2018-02-24 04:04:00","-4.7","-5.7",0.0,0.0,1018.5
"2018-02-24 04:05:00","-4.6","-5.6",0.0,0.0,1018.6
"2018-02-24 04:06:00","-4.7","-5.7",0.0,0.0,1018.6
"2018-02-24 04:07:00","-4.7","-5.8",0.0,0.0,1018.6
"2018-02-24 04:08:00","-4.6","-5.7",0.0,0.0,1018.6
"2018-02-24 04:09:00","-4.6","-5.6",0.0,0.0,1018.7
"2018-02-24 04:10:00","-4.5","-5.5",0.0,0.0,1018.6
"2018-02-24 04:11:00","-4.5","-5.5",0.0,0.0,1018.7
"2018-02-24 04:12:00","-4.5","-5.5",0.0,0.0,1018.7
"2018-02-24 04:13:00","-4.5","-5.5",0.0,0.0,1018.7
"2018-02-24 04:14:00","-4.5","-5.5",0.0,0.0,1018.7
"2018-02-24 04:15:00","-4.5","-5.5",0.0,0.0,1018.7
"2018-02-24 04:16:00","-4.5","-5.5",0.0,0.0,1018.6
"2018-02-24 04:17:00","-4.5","-5.5",0.0,0.0,1018.7
"2018-02-24 04:18:00","-4.6","-5.6",0.0,0.0,1018.7
"2018-02-24 04:19:00","-4.6","-5.6",0.0,0.0,1018.7
"2018-02-24 04:20:00","-4.6","-5.6",0.0,0.0,1018.7
"2018-02-24 04:21:00","-4.6","-5.6",0.0,0.0,1018.7
"2018-02-24 04:22:00","-4.6","-5.6",0.0,0.0,1018.7
"2018-02-24 04:23:00","-4.6","-5.6",0.0,0.0,1018.7
"2018-02-24 04:24:00","-4.6","-5.6",0.0,0.0,1018.7
"2018-02-24 04:25:00","-4.5","-5.5",0.0,0.0,1018.8
"2018-02-24 04:26:00","-4.5","-5.5",0.0,0.0,1018.7
"2018-02-24 04:27:00","-4.6","-5.6",0.0,0.0,1018.7
"2018-02-24 04:28:00","-4.6","-5.6",0.0,0.0,1018.7
"2018-02-24 04:29:00","-4.6","-5.6",0.0,0.0,1018.7
"2018-02-24 04:30:00","-4.6","-5.6",0.0,0.0,1018.7
"2018-02-24 04:31:00","-4.6","-5.6",0.0,0.0,1018.7
"2018-02-24 04:32:00","-4.6","-5.6",0.0,0.0,1018.7
"2018-02-24 04:33:00","-4.6","-5.6",0.0,0.0,1018.6
"2018-02-24 04:34:00","-4.7","-5.7",0.0,0.0,1018.7
"2018-02-24 04:35:00","-4.7","-5.8",0.0,0.0,1018.7
"2018-02-24 04:36:00","-4.7","-5.8",0.0,0.0,1018.7
"2018-02-24 04:37:00","-4.7","-5.8",0.0,0.0,1018.7
"2018-02-24 04:38:00","-4.7","-5.8",0.0,0.0,1018.7
"2018-02-24 04:39:00","-4.7","-5.8",0.0,0.0,1018.6
"2018-02-24 04:40:00","-4.7","-5.8",0.0,0.0,1018.6
"2018-02-24 04:41:00","-4.7","-5.8",0.0,0.0,1018.7
"2018-02-24 04:42:00","-4.6","-5.6",0.0,0.0,1018.6
"2018-02-24 04:43:00","-4.6","-5.6",0.0,0.0,1018.6
"2018-02-24 04:44:00","-4.7","-5.8",0.0,0.0,1018.6
"2018-02-24 04:45:00","-4.7","-5.8",0.0,0.0,1018.7
"2018-02-24 04:46:00","-4.7","-5.8",0.0,0.0,1018.7
"2018-02-24 04:47:00","-4.7","-5.8",0.0,0.0,1018.7
"2018-02-24 04:48:00","-4.7","-5.8",0.0,0.0,1018.7
"2018-02-24 04:49:00","-4.7","-5.8",0.0,0.0,1018.6
"2018-02-24 04:50:00","-4.6","-5.6",0.0,0.0,1018.7
"2018-02-24 04:51:00","-4.6","-5.6",0.0,0.0,1018.7
"2018-02-24 04:52:00","-4.6","-5.6",0.0,0.0,1018.7
"2018-02-24 04:53:00","-4.7","-5.7",0.0,0.0,1018.7
"2018-02-24 04:54:00","-4.7","-5.8",0.0,0.0,1018.7
"2018-02-24 04:55:00","-4.7","-5.8",0.0,0.0,1018.7
"2018-02-24 04:56:00","-4.6","-5.6",0.0,0.0,1018.7
"2018-02-24 04:57:00","-4.7","-5.7",0.0,0.0,1018.8
"2018-02-24 04:58:00","-4.7","-5.8",0.0,0.0,1018.7
"2018-02-24 04:59:00","-4.7","-5.8",0.0,0.0,1018.7
"2018-02-24 05:00:00","-4.7","-5.8",0.0,0.0,1018.7
"2018-02-24 05:01:00","-4.8","-5.9",0.0,0.0,1018.7
"2018-02-24 05:02:00","-4.8","-5.9",0.0,0.0,1018.7
"2018-02-24 05:03:00","-4.8","-5.8",0.0,0.0,1018.7
"2018-02-24 05:04:00","-4.8","-5.8",0.0,0.0,1018.7
"2018-02-24 05:05:00","-4.9","-5.9",0.0,0.0,1018.7
"2018-02-24 05:06:00","-4.8","-5.8",0.0,0.0,1018.7
"2018-02-24 05:07:00","-4.8","-5.8",0.0,0.0,1018.8
"2018-02-24 05:08:00","-4.8","-5.8",0.0,0.0,1018.7
"2018-02-24 05:09:00","-4.8","-5.8",0.0,0.0,1018.7
"2018-02-24 05:10:00","-4.7","-5.7",0.0,0.0,1018.8
"2018-02-24 05:11:00","-4.7","-5.7",0.0,0.0,1018.7
"2018-02-24 05:12:00","-4.8","-5.8",0.0,0.0,1018.7
"2018-02-24 05:13:00","-4.8","-5.8",0.0,0.0,1018.8
"2018-02-24 05:14:00","-4.8","-5.8",0.0,0.0,1018.8
"2018-02-24 05:15:00","-4.8","-5.8",0.0,0.0,1018.7
"2018-02-24 05:16:00","-4.8","-5.8",0.0,0.0,1018.7
"2018-02-24 05:17:00","-4.8","-5.8",0.0,0.0,1018.8
"2018-02-24 05:18:00","-4.9","-5.9",0.0,0.0,1018.8
"2018-02-24 05:19:00","-4.9","-5.9",0.0,0.0,1018.8
"2018-02-24 05:20:00","-4.9","-5.9",0.0,0.0,1018.8
"2018-02-24 05:21:00","-4.9","-5.9",0.0,0.0,1018.8
"2018-02-24 05:22:00","-4.9","-5.9",0.0,0.0,1018.8
"2018-02-24 05:23:00","-4.8","-5.8",0.0,0.0,1018.8
"2018-02-24 05:24:00","-4.8","-5.8",0.0,0.0,1018.8
"2018-02-24 05:25:00","-4.9","-5.9",0.0,0.0,1018.8
"2018-02-24 05:26:00","-4.9","-5.9",0.0,0.0,1018.8
"2018-02-24 05:27:00","-5.0","-6.0",0.0,0.0,1018.8
"2018-02-24 05:28:00","-5.0","-6.1",0.0,0.0,1018.7
"2018-02-24 05:29:00","-4.9","-5.9",0.0,0.0,1018.7
"2018-02-24 05:30:00","-4.9","-5.9",0.0,0.0,1018.8
"2018-02-24 05:31:00","-4.9","-5.9",0.0,0.0,1018.8
"2018-02-24 05:32:00","-5.0","-6.0",0.0,0.0,1018.8
"2018-02-24 05:33:00","-5.1","-6.1",0.0,0.0,1018.8
"2018-02-24 05:34:00","-5.1","-6.2",0.0,0.0,1018.8
"2018-02-24 05:35:00","-5.1","-6.2",0.0,0.0,1018.8
"2018-02-24 05:36:00","-5.0","-6.1",0.0,0.0,1018.8
"2018-02-24 05:37:00","-5.1","-6.1",0.0,0.0,1018.8
"2018-02-24 05:38:00","-5.1","-6.1",0.0,0.0,1018.8
"2018-02-24 05:39:00","-5.2","-6.2",0.0,0.0,1018.9
"2018-02-24 05:40:00","-5.1","-6.1",0.0,0.0,1018.9
"2018-02-24 05:41:00","-5.1","-6.1",0.0,0.0,1018.9
"2018-02-24 05:42:00","-5.1","-6.1",0.0,0.0,1018.9
"2018-02-24 05:43:00","-5.1","-6.1",0.0,0.0,1018.9
"2018-02-24 05:44:00","-5.1","-6.1",0.0,0.0,1018.9
"2018-02-24 05:45:00","-5.0","-6.0",0.0,0.0,1018.9
"2018-02-24 05:46:00","-5.0","-6.0",0.0,0.0,1019.0
"2018-02-24 05:47:00","-5.1","-6.1",0.0,0.0,1018.9
"2018-02-24 05:48:00","-5.0","-6.0",0.0,0.0,1019.0
"2018-02-24 05:49:00","-5.1","-6.1",0.0,0.0,1019.0
"2018-02-24 05:50:00","-5.0","-6.0",0.0,0.0,1019.0
"2018-02-24 05:51:00","-5.0","-6.0",0.0,0.0,1018.9
"2018-02-24 05:52:00","-4.9","-5.9",0.0,0.0,1018.9
"2018-02-24 05:53:00","-4.9","-5.9",0.0,0.0,1018.9
"2018-02-24 05:54:00","-5.0","-6.0",0.0,0.0,1019.0
"2018-02-24 05:55:00","-5.0","-6.0",0.0,0.0,1019.0
"2018-02-24 05:56:00","-5.1","-6.1",0.0,0.0,1019.0
"2018-02-24 05:57:00","-5.1","-6.1",0.0,0.0,1018.9
"2018-02-24 05:58:00","-5.2","-6.2",0.0,0.0,1018.9
"2018-02-24 05:59:00","-5.2","-6.2",0.0,0.0,1019.0
"2018-02-24 06:00:00","-5.3","-6.4",0.0,0.0,1018.9
"2018-02-24 06:01:00","-5.3","-6.4",0.0,0.0,1019.0
"2018-02-24 06:02:00","-5.3","-6.4",0.0,0.0,1019.0
"2018-02-24 06:03:00","-5.3","-6.4",0.0,0.0,1018.9
"2018-02-24 06:04:00","-5.3","-6.4",0.0,0.0,1018.9
"2018-02-24 06:05:00","-5.3","-6.4",0.0,0.0,1018.9
"2018-02-24 06:06:00","-5.3","-6.3",0.0,0.0,1018.9
"2018-02-24 06:07:00","-5.3","-6.3",0.0,0.0,1018.9
"2018-02-24 06:08:00","-5.3","-6.4",0.0,0.0,1018.9
"2018-02-24 06:09:00","-5.3","-6.3",0.0,0.0,1019.0
"2018-02-24 06:10:00","-5.3","-6.3",0.0,0.0,1019.0
"2018-02-24 06:11:00","-5.3","-6.4",0.0,0.0,1019.0
"2018-02-24 06:12:00","-5.3","-6.4",0.0,0.0,1019.0
"2018-02-24 06:13:00","-5.2","-6.3",0.0,0.0,1019.1
"2018-02-24 06:14:00","-5.2","-6.2",0.0,0.0,1019.1
"2018-02-24 06:15:00","-5.2","-6.2",0.0,0.0,1019.1
"2018-02-24 06:16:00","-5.2","-6.2",0.0,0.0,1019.1
"2018-02-24 06:17:00","-5.2","-6.2",0.0,0.0,1019.1
"2018-02-24 06:18:00","-5.2","-6.2",0.0,0.0,1019.1
"2018-02-24 06:19:00","-5.2","-6.2",0.0,0.0,1019.1
"2018-02-24 06:20:00","-5.3","-6.3",0.0,0.0,1019.1
"2018-02-24 06:21:00","-5.3","-6.3",0.0,0.0,1019.1
"2018-02-24 06:22:00","-5.3","-6.3",0.0,0.0,1019.1
"2018-02-24 06:23:00","-5.3","-6.3",0.0,0.0,1019.1
"2018-02-24 06:24:00","-5.3","-6.3",0.0,0.0,1019.1
"2018-02-24 06:25:00","-5.3","-6.3",0.0,0.0,1019.1
"2018-02-24 06:26:00","-5.3","-6.3",0.0,0.0,1019.2
"2018-02-24 06:27:00","-5.3","-6.3",0.0,0.0,1019.2
"2018-02-24 06:28:00","-5.3","-6.3",0.0,0.0,1019.2
"2018-02-24 06:29:00","-5.3","-6.3",0.0,0.0,1019.2
"2018-02-24 06:30:00","-5.3","-6.3",0.0,0.0,1019.2
"2018-02-24 06:31:00","-5.3","-6.3",0.0,0.0,1019.2
"2018-02-24 06:32:00","-5.3","-6.3",0.0,0.0,1019.2
"2018-02-24 06:33:00","-5.3","-6.3",0.0,0.0,1019.2
"2018-02-24 06:34:00","-5.4","-6.4",0.0,0.0,1019.2
"2018-02-24 06:35:00","-5.4","-6.4",0.0,0.0,1019.3
"2018-02-24 06:36:00","-5.4","-6.4",0.0,0.0,1019.3
"2018-02-24 06:37:00","-5.4","-6.4",0.0,0.0,1019.3
"2018-02-24 06:38:00","-5.5","-6.5",0.0,0.0,1019.3
"2018-02-24 06:39:00","-5.5","-6.5",0.0,0.0,1019.3
"2018-02-24 06:40:00","-5.4","-6.4",0.0,0.0,1019.3
"2018-02-24 06:41:00","-5.4","-6.4",0.0,0.0,1019.3
"2018-02-24 06:42:00","-5.4","-6.4",0.0,0.0,1019.4
"2018-02-24 06:43:00","-5.4","-6.4",0.0,0.0,1019.3
"2018-02-24 06:44:00","-5.4","-6.4",0.0,0.0,1019.4
"2018-02-24 06:45:00","-5.4","-6.4",0.0,0.0,1019.4
"2018-02-24 06:46:00","-5.4","-6.4",0.0,0.0,1019.4
"2018-02-24 06:47:00","-5.4","-6.4",0.0,0.0,1019.3
"2018-02-24 06:48:00","-5.4","-6.4",0.0,0.0,1019.4
"2018-02-24 06:49:00","-5.5","-6.5",0.0,0.0,1019.4
"2018-02-24 06:50:00","-5.5","-6.5",0.0,0.0,1019.4
"2018-02-24 06:51:00","-5.5","-6.5",0.0,0.0,1019.4
"2018-02-24 06:52:00","-5.5","-6.5",0.0,0.0,1019.4
"2018-02-24 06:53:00","-5.5","-6.5",0.0,0.0,1019.5
"2018-02-24 06:54:00","-5.5","-6.5",0.0,0.0,1019.5
"2018-02-24 06:55:00","-5.5","-6.5",0.0,0.0,1019.5
"2018-02-24 06:56:00","-5.5","-6.5",0.0,0.0,1019.5
"2018-02-24 06:57:00","-5.5","-6.5",0.0,0.0,1019.5
"2018-02-24 06:58:00","-5.5","-6.5",0.0,0.0,1019.5
"2018-02-24 06:59:00","-5.5","-6.5",0.0,0.0,1019.5
"2018-02-24 07:00:00","-5.5","-6.5",0.0,0.0,1019.5
"2018-02-24 07:01:00","-5.5","-6.5",0.0,0.0,1019.5
"2018-02-24 07:02:00","-5.5","-6.5",0.0,0.0,1019.5
"2018-02-24 07:03:00","-5.5","-6.5",0.0,0.0,1019.5
"2018-02-24 07:04:00","-5.5","-6.5",0.0,0.0,1019.5
"2018-02-24 07:05:00","-5.5","-6.5",0.0,0.0,1019.5
"2018-02-24 07:06:00","-5.5","-6.5",0.0,0.0,1019.5
"2018-02-24 07:07:00","-5.5","-6.5",0.0,0.0,1019.6
"2018-02-24 07:08:00","-5.5","-6.5",0.0,0.0,1019.5
"2018-02-24 07:09:00","-5.5","-6.5",0.0,0.0,1019.6
"2018-02-24 07:10:00","-5.5","-6.5",0.0,0.0,1019.6
"2018-02-24 07:11:00","-5.5","-6.5",0.0,0.0,1019.5
"2018-02-24 07:12:00","-5.5","-6.5",0.0,0.0,1019.6
"2018-02-24 07:13:00","-5.5","-6.5",0.0,0.0,1019.6
"2018-02-24 07:14:00","-5.5","-6.5",0.0,0.0,1019.6
"2018-02-24 07:15:00","-5.5","-6.5",0.0,0.0,1019.6
"2018-02-24 07:16:00","-5.5","-6.5",0.0,0.0,1019.6
"2018-02-24 07:17:00","-5.5","-6.5",0.0,0.0,1019.6
"2018-02-24 07:18:00","-5.5","-6.5",0.0,0.0,1019.6
"2018-02-24 07:19:00","-5.5","-6.5",0.0,0.0,1019.6
"2018-02-24 07:20:00","-5.5","-6.5",0.0,0.0,1019.6
"2018-02-24 07:21:00","-5.5","-6.5",0.0,0.0,1019.6
"2018-02-24 07:22:00","-5.5","-6.5",0.0,0.0,1019.7
"2018-02-24 07:23:00","-5.6","-6.6",0.0,0.0,1019.7
"2018-02-24 07:24:00","-5.5","-6.5",0.0,0.0,1019.7
"2018-02-24 07:25:00","-5.5","-6.5",0.0,0.0,1019.7
"2018-02-24 07:26:00","-5.5","-6.5",0.0,0.0,1019.7
"2018-02-24 07:27:00","-5.5","-6.5",0.0,0.0,1019.7
"2018-02-24 07:28:00","-5.5","-6.5",0.0,0.0,1019.8
"2018-02-24 07:29:00","-5.5","-6.5",0.0,0.0,1019.8
"2018-02-24 07:30:00","-5.6","-6.6",0.0,0.0,1019.8
"2018-02-24 07:31:00","-5.6","-6.6",0.0,0.0,1019.9
"2018-02-24 07:32:00","-5.6","-6.6",0.0,0.0,1019.9
"2018-02-24 07:33:00","-5.6","-6.6",0.0,0.0,1019.9
"2018-02-24 07:34:00","-5.6","-6.6",0.0,0.0,1019.9
"2018-02-24 07:35:00","-5.5","-6.5",0.0,0.0,1019.9
"2018-02-24 07:36:00","-5.6","-6.6",0.0,0.0,1019.9
"2018-02-24 07:37:00","-5.5","-6.5",0.0,0.0,1019.9
"2018-02-24 07:38:00","-5.6","-6.6",0.0,0.0,1019.9
"2018-02-24 07:39:00","-5.6","-6.6",0.0,0.0,1019.9
"2018-02-24 07:40:00","-5.5","-6.5",0.0,0.0,1019.9
"2018-02-24 07:41:00","-5.5","-6.5",0.0,0.0,1019.8
"2018-02-24 07:42:00","-5.5","-6.5",0.0,0.0,1019.9
"2018-02-24 07:43:00","-5.5","-6.5",0.0,0.0,1019.9
"2018-02-24 07:44:00","-5.4","-6.4",0.0,0.0,1019.9
"2018-02-24 07:45:00","-5.4","-6.4",0.0,0.0,1019.9
"2018-02-24 07:46:00","-5.3","-6.3",0.0,0.0,1019.9
"2018-02-24 07:47:00","-5.3","-6.3",0.0,0.0,1019.9
"2018-02-24 07:48:00","-5.2","-6.2",0.0,0.0,1019.9